AF1844 MDSI-MDST

Flight info

Callsign AF1844
Flight time 1h 7m
Altitude 2500
Route MDST
Aircraft H60/M-SDE3L/L

Departure

Time 2026-04-26 21:06
Airport San Isidro Air Base (MDSI)

Arrival

Time 2026-04-26 22:13
Airport Cibao International Airport (MDST)
Time Latitude Longitude Altitude Speed Heading
2026-04-26 20:53 18.49860 -69.76838 117 ft 0 kts 126°
2026-04-26 21:04 18.49857 -69.76834 116 ft 3 kts 128°
2026-04-26 21:05 18.49838 -69.76829 122 ft 3 kts 184°
2026-04-26 21:05 18.49826 -69.76831 125 ft 2 kts 195°
2026-04-26 21:05 18.49822 -69.76826 154 ft 3 kts 204°
2026-04-26 21:05 18.49808 -69.76860 374 ft 9 kts 239°
2026-04-26 21:06 18.49778 -69.77156 669 ft 70 kts 260°
2026-04-26 21:06 18.49709 -69.77823 902 ft 110 kts 255°
2026-04-26 21:06 18.49596 -69.78704 925 ft 131 kts 258°
2026-04-26 21:06 18.49456 -69.79669 859 ft 131 kts 255°
2026-04-26 21:07 18.49296 -69.80597 1031 ft 128 kts 253°
2026-04-26 21:07 18.49111 -69.81532 1047 ft 138 kts 252°
2026-04-26 21:07 18.48851 -69.82517 981 ft 137 kts 248°
2026-04-26 21:07 18.48616 -69.83466 1005 ft 132 kts 250°
2026-04-26 21:08 18.48451 -69.84407 1079 ft 133 kts 254°
2026-04-26 21:08 18.48433 -69.85402 1123 ft 143 kts 270°
2026-04-26 21:08 18.48517 -69.86427 1078 ft 133 kts 267°
2026-04-26 21:08 18.48565 -69.87351 1294 ft 134 kts 267°
2026-04-26 21:09 18.48569 -69.88337 1080 ft 123 kts 243°
2026-04-26 21:09 18.48074 -69.89033 1064 ft 124 kts 230°
2026-04-26 21:09 18.47641 -69.89853 776 ft 129 kts 239°
2026-04-26 21:09 18.47096 -69.90045 770 ft 68 kts 88°
2026-04-26 21:10 18.47141 -69.89650 377 ft 35 kts 358°
2026-04-26 21:10 18.47336 -69.89692 187 ft 15 kts 358°
2026-04-26 21:10 18.47422 -69.89701 138 ft 11 kts 350°
2026-04-26 21:10 18.47453 -69.89706 134 ft 3 kts 348°
2026-04-26 21:11 18.47471 -69.89709 120 ft 0 kts 342°
2026-04-26 21:11 18.47472 -69.89710 120 ft 0 kts 342°
2026-04-26 21:13 18.47475 -69.89711 137 ft 3 kts 347°
2026-04-26 21:13 18.47477 -69.89722 265 ft 10 kts 302°
2026-04-26 21:13 18.47541 -69.90030 581 ft 67 kts 273°
2026-04-26 21:13 18.47563 -69.90692 857 ft 109 kts 261°
2026-04-26 21:14 18.47407 -69.91509 927 ft 117 kts 239°
2026-04-26 21:14 18.46935 -69.92246 876 ft 123 kts 235°
2026-04-26 21:14 18.46497 -69.92993 1030 ft 121 kts 237°
2026-04-26 21:14 18.46121 -69.93807 1111 ft 129 kts 244°
2026-04-26 21:15 18.45731 -69.94672 986 ft 128 kts 243°
2026-04-26 21:15 18.45390 -69.95520 1068 ft 129 kts 246°
2026-04-26 21:15 18.45048 -69.96398 903 ft 124 kts 246°
2026-04-26 21:15 18.44977 -69.97307 964 ft 136 kts 268°
2026-04-26 21:16 18.45457 -69.98091 956 ft 127 kts 317°
2026-04-26 21:16 18.46072 -69.98759 1173 ft 125 kts 307°
2026-04-26 21:16 18.46687 -69.99388 1464 ft 126 kts 314°
2026-04-26 21:16 18.47407 -70.00059 1393 ft 148 kts 316°
2026-04-26 21:17 18.48262 -70.00789 1485 ft 169 kts 318°
2026-04-26 21:17 18.49179 -70.01592 1679 ft 179 kts 318°
2026-04-26 21:20 18.49379 -70.01767 1723 ft 179 kts 318°
2026-04-26 21:20 18.50354 -70.02637 1832 ft 190 kts 317°
2026-04-26 21:21 18.51321 -70.03603 1838 ft 189 kts 313°
2026-04-26 21:21 18.52270 -70.04602 1738 ft 195 kts 310°
2026-04-26 21:21 18.53175 -70.05665 1658 ft 193 kts 307°
2026-04-26 21:21 18.54036 -70.06704 1806 ft 184 kts 307°
2026-04-26 21:22 18.54909 -70.07689 2005 ft 186 kts 310°
2026-04-26 21:22 18.55842 -70.08673 1968 ft 190 kts 310°
2026-04-26 21:22 18.56667 -70.09646 2389 ft 163 kts 304°
2026-04-26 21:23 18.58286 -70.11648 2270 ft 186 kts 306°
2026-04-26 21:23 18.58301 -70.11667 2272 ft 186 kts 306°
2026-04-26 21:23 18.58665 -70.12127 2393 ft 177 kts 305°
2026-04-26 21:23 18.59382 -70.13047 2974 ft 151 kts 305°
2026-04-26 21:24 18.60122 -70.14007 2903 ft 185 kts 306°
2026-04-26 21:24 18.60940 -70.15082 2765 ft 184 kts 302°
2026-04-26 21:24 18.61870 -70.15927 3018 ft 178 kts 327°
2026-04-26 21:24 18.63052 -70.16391 3142 ft 174 kts 334°
2026-04-26 21:25 18.64046 -70.16925 3786 ft 159 kts 326°
2026-04-26 21:25 18.65011 -70.17440 4109 ft 156 kts 330°
2026-04-26 21:25 18.66049 -70.17861 3651 ft 157 kts 335°
2026-04-26 21:25 18.67008 -70.18193 3625 ft 136 kts 338°
2026-04-26 21:26 18.67911 -70.18506 3652 ft 139 kts 338°
2026-04-26 21:26 18.68807 -70.18841 3662 ft 136 kts 335°
2026-04-26 21:26 18.69636 -70.19356 3119 ft 133 kts 314°
2026-04-26 21:26 18.70198 -70.19975 2849 ft 107 kts 298°
2026-04-26 21:27 18.70527 -70.20672 2769 ft 108 kts 294°
2026-04-26 21:27 18.70857 -70.21391 2656 ft 108 kts 297°
2026-04-26 21:27 18.71213 -70.22087 2578 ft 109 kts 298°
2026-04-26 21:27 18.71720 -70.22688 2430 ft 111 kts 325°
2026-04-26 21:28 18.72413 -70.23007 2366 ft 117 kts 351°
2026-04-26 21:28 18.73287 -70.23173 2273 ft 133 kts 353°
2026-04-26 21:28 18.74193 -70.23351 2291 ft 133 kts 352°
2026-04-26 21:28 18.75100 -70.23529 2291 ft 131 kts 349°
2026-04-26 21:29 18.75986 -70.23767 2334 ft 136 kts 349°
2026-04-26 21:29 18.76892 -70.24020 2296 ft 132 kts 340°
2026-04-26 21:29 18.77531 -70.24704 2227 ft 130 kts 307°
2026-04-26 21:29 18.78047 -70.25428 2431 ft 123 kts 311°
2026-04-26 21:30 18.78591 -70.26177 2401 ft 133 kts 310°
2026-04-26 21:30 18.79215 -70.26937 2294 ft 140 kts 316°
2026-04-26 21:30 18.79947 -70.27589 2207 ft 138 kts 326°
2026-04-26 21:30 18.80734 -70.28151 2194 ft 133 kts 328°
2026-04-26 21:31 18.81510 -70.28699 2163 ft 137 kts 329°
2026-04-26 21:31 18.82315 -70.29212 2113 ft 137 kts 333°
2026-04-26 21:31 18.83112 -70.29745 2097 ft 134 kts 325°
2026-04-26 21:31 18.83798 -70.30401 2147 ft 132 kts 316°
2026-04-26 21:32 18.84323 -70.31211 2154 ft 139 kts 299°
2026-04-26 21:32 18.84747 -70.32147 2002 ft 141 kts 296°
2026-04-26 21:32 18.85171 -70.33059 1995 ft 136 kts 297°
2026-04-26 21:32 18.85599 -70.33919 2081 ft 129 kts 300°
2026-04-26 21:33 18.86062 -70.34753 2096 ft 134 kts 307°
2026-04-26 21:33 18.86661 -70.35481 2116 ft 131 kts 322°
2026-04-26 21:33 18.87436 -70.35978 2119 ft 130 kts 337°
2026-04-26 21:33 18.88263 -70.36376 2110 ft 133 kts 338°
2026-04-26 21:34 18.89090 -70.36762 2141 ft 127 kts 337°
2026-04-26 21:34 18.89887 -70.37146 2265 ft 126 kts 339°
2026-04-26 21:34 18.90699 -70.37533 2254 ft 133 kts 337°
2026-04-26 21:34 18.91530 -70.37915 2276 ft 127 kts 339°
2026-04-26 21:35 18.92392 -70.38301 2131 ft 140 kts 338°
2026-04-26 21:35 18.93199 -70.38722 2230 ft 117 kts 335°
2026-04-26 21:35 18.93934 -70.39139 2397 ft 127 kts 335°
2026-04-26 21:35 18.94741 -70.39594 2306 ft 130 kts 334°
2026-04-26 21:36 18.95475 -70.40098 2427 ft 124 kts 327°
2026-04-26 21:36 18.95934 -70.40460 2492 ft 125 kts 325°
2026-04-26 21:36 18.96827 -70.41273 2566 ft 130 kts 320°
2026-04-26 21:36 18.97503 -70.41918 2537 ft 131 kts 322°
2026-04-26 21:37 18.98210 -70.42526 2533 ft 132 kts 323°
2026-04-26 21:37 18.98931 -70.43113 2524 ft 127 kts 330°
2026-04-26 21:37 18.99662 -70.43565 2698 ft 118 kts 336°
2026-04-26 21:37 19.00393 -70.43939 2924 ft 120 kts 340°
2026-04-26 21:38 19.01208 -70.44278 2882 ft 129 kts 340°
2026-04-26 21:38 19.01841 -70.44804 3151 ft 109 kts 314°
2026-04-26 21:38 19.01997 -70.45603 3405 ft 109 kts 278°
2026-04-26 21:38 19.02107 -70.46384 3744 ft 117 kts 282°
2026-04-26 21:39 19.02178 -70.47335 4167 ft 142 kts 275°
2026-04-26 21:39 19.02255 -70.48458 4787 ft 160 kts 275°
2026-04-26 21:39 19.02314 -70.49660 5243 ft 166 kts 270°
2026-04-26 21:39 19.02301 -70.50834 5067 ft 146 kts 270°
2026-04-26 21:40 19.02302 -70.51848 5073 ft 132 kts 270°
2026-04-26 21:40 19.02234 -70.52755 5199 ft 117 kts 257°
2026-04-26 21:40 19.01972 -70.53588 5271 ft 123 kts 252°
2026-04-26 21:40 19.01696 -70.54462 5322 ft 127 kts 250°
2026-04-26 21:41 19.01377 -70.55321 5317 ft 123 kts 250°
2026-04-26 21:41 19.01112 -70.56163 5388 ft 118 kts 255°
2026-04-26 21:41 19.00875 -70.56989 5469 ft 118 kts 253°
2026-04-26 21:41 19.00632 -70.57852 5422 ft 126 kts 254°
2026-04-26 21:42 19.00336 -70.58693 5445 ft 117 kts 248°
2026-04-26 21:42 19.00012 -70.59421 5676 ft 105 kts 243°
2026-04-26 21:42 18.99583 -70.60134 5663 ft 123 kts 237°
2026-04-26 21:42 18.99118 -70.60895 5645 ft 120 kts 238°
2026-04-26 21:43 18.98707 -70.61579 5878 ft 101 kts 238°
2026-04-26 21:43 18.98344 -70.62154 6255 ft 92 kts 237°
2026-04-26 21:43 18.97916 -70.62694 6489 ft 99 kts 227°
2026-04-26 21:43 18.97397 -70.63266 6502 ft 116 kts 228°
2026-04-26 21:44 18.96825 -70.63915 6402 ft 119 kts 228°
2026-04-26 21:44 18.96265 -70.64466 6568 ft 100 kts 220°
2026-04-26 21:44 18.95712 -70.64915 6763 ft 105 kts 219°
2026-04-26 21:44 18.95108 -70.65424 6755 ft 115 kts 220°
2026-04-26 21:45 18.94482 -70.65972 6742 ft 118 kts 219°
2026-04-26 21:45 18.93783 -70.66421 6737 ft 120 kts 210°
2026-04-26 21:45 18.93054 -70.66863 6372 ft 116 kts 211°
2026-04-26 21:45 18.92414 -70.67261 6134 ft 105 kts 213°
2026-04-26 21:46 18.91832 -70.67710 5899 ft 104 kts 221°
2026-04-26 21:46 18.91288 -70.68268 5546 ft 119 kts 231°
2026-04-26 21:46 18.90979 -70.69101 5138 ft 129 kts 262°
2026-04-26 21:46 18.90897 -70.70041 4483 ft 114 kts 268°
2026-04-26 21:47 18.90865 -70.70654 4203 ft 62 kts 270°
2026-04-26 21:47 18.90835 -70.71039 3960 ft 36 kts 271°
2026-04-26 21:47 18.90822 -70.71208 3865 ft 23 kts 267°
2026-04-26 21:47 18.90808 -70.71416 3854 ft 28 kts 270°
2026-04-26 21:48 18.90792 -70.71628 3848 ft 33 kts 256°
2026-04-26 21:48 18.90775 -70.71888 3833 ft 28 kts 269°
2026-04-26 21:48 18.90765 -70.72011 3825 ft 7 kts 254°
2026-04-26 21:48 18.90762 -70.72066 3824 ft 4 kts 276°
2026-04-26 21:49 18.90767 -70.72101 3823 ft 3 kts 299°
2026-04-26 21:49 18.90782 -70.72124 3819 ft 4 kts 264°
2026-04-26 21:49 18.90785 -70.72140 3818 ft 2 kts 261°
2026-04-26 21:49 18.90784 -70.72147 3815 ft 0 kts 259°
2026-04-26 21:52 18.90774 -70.72159 3818 ft 5 kts 184°
2026-04-26 21:52 18.90755 -70.72129 3819 ft 1 kts 86°
2026-04-26 21:53 18.90756 -70.72116 3817 ft 4 kts 88°
2026-04-26 21:53 18.90758 -70.72072 3828 ft 14 kts 94°
2026-04-26 21:53 18.90767 -70.71928 3844 ft 26 kts 85°
2026-04-26 21:53 18.90793 -70.71664 3933 ft 50 kts 93°
2026-04-26 21:54 18.90813 -70.71149 4107 ft 91 kts 89°
2026-04-26 21:54 18.90954 -70.70527 4607 ft 81 kts 71°
2026-04-26 21:54 18.91206 -70.70009 5076 ft 86 kts 67°
2026-04-26 21:54 18.91518 -70.69341 5193 ft 111 kts 66°
2026-04-26 21:55 18.91952 -70.68706 5356 ft 109 kts 42°
2026-04-26 21:55 18.92610 -70.68250 5455 ft 115 kts 30°
2026-04-26 21:55 18.93301 -70.67821 5589 ft 116 kts 33°
2026-04-26 21:55 18.94019 -70.67364 5651 ft 124 kts 32°
2026-04-26 21:56 18.94794 -70.66875 5595 ft 134 kts 32°
2026-04-26 21:56 18.95608 -70.66403 5532 ft 132 kts 28°
2026-04-26 21:56 18.96445 -70.65980 5462 ft 136 kts 27°
2026-04-26 21:56 18.97291 -70.65531 5328 ft 134 kts 27°
2026-04-26 21:57 18.98096 -70.65086 5347 ft 129 kts 30°
2026-04-26 21:57 18.98878 -70.64628 5368 ft 128 kts 32°
2026-04-26 21:57 18.99637 -70.64159 5422 ft 125 kts 31°
2026-04-26 21:57 19.00401 -70.63721 5485 ft 126 kts 27°
2026-04-26 21:58 19.01227 -70.63339 5449 ft 133 kts 25°
2026-04-26 21:58 19.02091 -70.62954 5331 ft 130 kts 24°
2026-04-26 21:58 19.02878 -70.62620 5455 ft 118 kts 22°
2026-04-26 21:58 19.03661 -70.62309 5549 ft 122 kts 22°
2026-04-26 21:59 19.04465 -70.61983 5608 ft 124 kts 22°
2026-04-26 21:59 19.05251 -70.61646 5726 ft 120 kts 23°
2026-04-26 21:59 19.06057 -70.61341 5782 ft 128 kts 21°
2026-04-26 21:59 19.06909 -70.61006 5700 ft 131 kts 22°
2026-04-26 22:00 19.07752 -70.60649 5676 ft 133 kts 24°
2026-04-26 22:00 19.08596 -70.60265 5626 ft 122 kts 27°
2026-04-26 22:00 19.09345 -70.59869 5776 ft 123 kts 29°
2026-04-26 22:00 19.10128 -70.59421 5701 ft 131 kts 31°
2026-04-26 22:01 19.10892 -70.58967 5701 ft 126 kts 29°
2026-04-26 22:01 19.11727 -70.58673 5684 ft 126 kts 18°
2026-04-26 22:01 19.12489 -70.58178 5571 ft 135 kts 37°
2026-04-26 22:01 19.13224 -70.57615 5516 ft 119 kts 37°
2026-04-26 22:02 19.13840 -70.57125 5836 ft 103 kts 40°
2026-04-26 22:02 19.14385 -70.56603 6063 ft 115 kts 47°
2026-04-26 22:02 19.14968 -70.55921 5942 ft 128 kts 50°
2026-04-26 22:02 19.15556 -70.55204 5896 ft 127 kts 51°
2026-04-26 22:03 19.16100 -70.54587 6465 ft 89 kts 47°
2026-04-26 22:03 19.16183 -70.54056 7666 ft 93 kts 96°
2026-04-26 22:03 19.16214 -70.53193 8370 ft 141 kts 89°
2026-04-26 22:03 19.16175 -70.52097 8845 ft 157 kts 93°
2026-04-26 22:04 19.16107 -70.50869 9054 ft 175 kts 96°
2026-04-26 22:04 19.15985 -70.49524 8999 ft 191 kts 94°
2026-04-26 22:04 19.15811 -70.48208 7841 ft 160 kts 140°
2026-04-26 22:04 19.14994 -70.47724 6376 ft 126 kts 198°
2026-04-26 22:05 19.14551 -70.47999 5609 ft 43 kts 321°
2026-04-26 22:05 19.15032 -70.48318 4361 ft 123 kts 340°
2026-04-26 22:05 19.15910 -70.48606 3572 ft 132 kts 348°
2026-04-26 22:05 19.16714 -70.48894 3858 ft 118 kts 341°
2026-04-26 22:06 19.17428 -70.49339 4108 ft 124 kts 327°
2026-04-26 22:06 19.18112 -70.49935 4199 ft 134 kts 324°
2026-04-26 22:06 19.18908 -70.50521 4085 ft 140 kts 329°
2026-04-26 22:06 19.19700 -70.51055 4150 ft 131 kts 331°
2026-04-26 22:07 19.20495 -70.51569 4064 ft 137 kts 332°
2026-04-26 22:07 19.21363 -70.52024 2807 ft 132 kts 338°
2026-04-26 22:07 19.22207 -70.52462 2262 ft 138 kts 337°
2026-04-26 22:07 19.23007 -70.52863 2444 ft 115 kts 334°
2026-04-26 22:08 19.23643 -70.53345 2842 ft 117 kts 327°
2026-04-26 22:08 19.24346 -70.53878 3067 ft 139 kts 327°
2026-04-26 22:08 19.25153 -70.54448 2957 ft 135 kts 328°
2026-04-26 22:08 19.25898 -70.54982 3157 ft 133 kts 330°
2026-04-26 22:09 19.26693 -70.55556 3014 ft 136 kts 324°
2026-04-26 22:09 19.27428 -70.56125 3141 ft 127 kts 327°
2026-04-26 22:09 19.28145 -70.56674 3294 ft 131 kts 328°
2026-04-26 22:09 19.28923 -70.57215 3303 ft 135 kts 328°
2026-04-26 22:10 19.29707 -70.57786 3269 ft 138 kts 327°
2026-04-26 22:10 19.30483 -70.58375 3195 ft 132 kts 327°
2026-04-26 22:10 19.31227 -70.58895 3337 ft 128 kts 330°
2026-04-26 22:10 19.32021 -70.59387 2722 ft 128 kts 335°
2026-04-26 22:11 19.32794 -70.59759 2341 ft 130 kts 341°
2026-04-26 22:11 19.33661 -70.60033 2039 ft 127 kts 352°
2026-04-26 22:11 19.34520 -70.60150 1959 ft 126 kts 359°
2026-04-26 22:11 19.35411 -70.60215 1773 ft 128 kts
2026-04-26 22:12 19.36281 -70.60273 1685 ft 125 kts 358°
2026-04-26 22:12 19.37167 -70.60374 1497 ft 132 kts 356°
2026-04-26 22:12 19.38048 -70.60430 1341 ft 121 kts
2026-04-26 22:12 19.38878 -70.60216 1273 ft 126 kts 16°
2026-04-26 22:13 19.39782 -70.59992 936 ft 146 kts 16°
2026-04-26 22:13 19.40694 -70.59860 840 ft 92 kts 312°
2026-04-26 22:13 19.40700 -70.60159 1147 ft 52 kts 233°
2026-04-26 22:13 19.40597 -70.60470 742 ft 31 kts 196°
2026-04-26 22:14 19.40494 -70.60435 588 ft 16 kts 185°
2026-04-26 22:14 19.40442 -70.60442 585 ft 4 kts 184°
2026-04-26 22:14 19.40428 -70.60434 584 ft 1 kts 174°
2026-04-26 22:14 19.40406 -70.60444 583 ft 6 kts 181°
2026-04-26 22:15 19.40354 -70.60443 586 ft 9 kts 144°
2026-04-26 22:15 19.40335 -70.60441 578 ft 3 kts 100°
2026-04-26 22:15 19.40330 -70.60447 569 ft 2 kts 99°
2026-04-26 22:15 19.40323 -70.60436 565 ft 1 kts 99°